When you browse on this site, cookies collect data to enhance your experience and personalize the content and advertising you see.
Visit our Privacy Policy to learn more. By continuing to use the site, you agree to this use of cookies and data.
  • în România
  • Lista ţărilor
  • Pe 7 zile
  • Temperatura apei
  • Meteo pe hartă
  • Widget-uri
  • user-avatar
    Intrare

    Meteo pe oră la Nha Trang

    Astăzi, 10 Decembrie, Marţi

    Timp Temperatura Precipitaţii Vânt Presiune Umiditate
    00:00 +20°C° 0 mm 3 m/s 750 mmHg 91%
    01:00 +20°C° 0 mm 3 m/s 750 mmHg 91%
    02:00 +20°C° 0 mm 3 m/s 750 mmHg 92%
    03:00 +20°C° 0 mm 3 m/s 749 mmHg 92%
    04:00 +20°C° 0 mm 2 m/s 749 mmHg 92%
    05:00 +20°C° 0 mm 2 m/s 749 mmHg 91%
    06:00 +20°C° 0 mm 3 m/s 749 mmHg 90%
    07:00 +21°C° 0 mm 3 m/s 750 mmHg 89%
    08:00 +22°C° 0 mm 3 m/s 750 mmHg 83%
    09:00 +25°C° 0 mm 3 m/s 750 mmHg 77%
    10:00 +26°C° 0 mm 3 m/s 750 mmHg 71%
    11:00 +26°C° 0 mm 4 m/s 750 mmHg 71%
    12:00 +26°C° 0 mm 4 m/s 749 mmHg 72%
    13:00 +26°C° 0 mm 4 m/s 749 mmHg 72%
    14:00 +26°C° 0 mm 4 m/s 748 mmHg 75%
    15:00 +25°C° 0 mm 5 m/s 748 mmHg 77%
    16:00 +25°C° 0 mm 5 m/s 748 mmHg 79%
    17:00 +23°C° 0 mm 4 m/s 749 mmHg 82%
    18:00 +22°C° 0 mm 4 m/s 749 mmHg 84%
    19:00 +22°C° 0 mm 4 m/s 749 mmHg 87%
    20:00 +21°C° 0 mm 3 m/s 750 mmHg 88%
    21:00 +21°C° 0 mm 3 m/s 750 mmHg 89%
    22:00 +20°C° 0 mm 3 m/s 750 mmHg 90%
    23:00 +20°C° 0 mm 3 m/s 750 mmHg 91%

    Mâine, 11 Decembrie, Miercuri

    Timp Temperatura Precipitaţii Vânt Presiune Umiditate
    00:00 +20°C° 0 mm 3 m/s 749 mmHg 91%
    01:00 +19°C° 0 mm 3 m/s 749 mmHg 91%
    02:00 +19°C° 0 mm 3 m/s 749 mmHg 91%
    03:00 +19°C° 0 mm 3 m/s 749 mmHg 91%
    04:00 +19°C° 0 mm 3 m/s 749 mmHg 90%
    05:00 +19°C° 0 mm 3 m/s 749 mmHg 89%
    06:00 +20°C° 0 mm 3 m/s 749 mmHg 87%
    07:00 +20°C° 0 mm 2 m/s 749 mmHg 86%
    08:00 +22°C° 0 mm 3 m/s 750 mmHg 80%
    09:00 +25°C° 0 mm 3 m/s 750 mmHg 73%
    10:00 +27°C° 0 mm 3 m/s 750 mmHg 67%
    11:00 +27°C° 0 mm 4 m/s 749 mmHg 67%
    12:00 +27°C° 0 mm 4 m/s 749 mmHg 67%
    13:00 +27°C° 0 mm 5 m/s 748 mmHg 67%
    14:00 +27°C° 0 mm 5 m/s 748 mmHg 69%
    15:00 +27°C° 0 mm 4 m/s 747 mmHg 71%
    16:00 +26°C° 0 mm 4 m/s 747 mmHg 73%
    17:00 +25°C° 0 mm 4 m/s 748 mmHg 78%
    18:00 +23°C° 0 mm 4 m/s 748 mmHg 82%
    19:00 +22°C° 0 mm 3 m/s 749 mmHg 87%
    20:00 +22°C° 0 mm 3 m/s 749 mmHg 87%
    21:00 +22°C° 0 mm 3 m/s 749 mmHg 87%
    22:00 +22°C° 0 mm 3 m/s 750 mmHg 87%
    23:00 +22°C° 0.1 mm 3 m/s 750 mmHg 87%

    Poimâine, 12 Decembrie, Joi

    Timp Temperatura Precipitaţii Vânt Presiune Umiditate
    00:00 +22°C° 0.1 mm 3 m/s 749 mmHg 87%
    01:00 +22°C° 0.1 mm 3 m/s 749 mmHg 87%
    02:00 +22°C° 0.1 mm 3 m/s 749 mmHg 87%
    03:00 +22°C° 0.1 mm 3 m/s 749 mmHg 86%
    04:00 +22°C° 0.1 mm 3 m/s 748 mmHg 86%
    05:00 +22°C° 0.1 mm 3 m/s 749 mmHg 87%
    06:00 +22°C° 0.1 mm 3 m/s 749 mmHg 88%
    07:00 +22°C° 0.1 mm 4 m/s 750 mmHg 89%
    08:00 +23°C° 0.2 mm 4 m/s 750 mmHg 88%
    09:00 +23°C° 0.2 mm 4 m/s 750 mmHg 87%
    10:00 +23°C° 0.2 mm 5 m/s 750 mmHg 86%
    11:00 +25°C° 0.1 mm 5 m/s 750 mmHg 81%
    12:00 +26°C° 0.1 mm 5 m/s 749 mmHg 77%
    13:00 +27°C° 0.1 mm 6 m/s 749 mmHg 72%
    14:00 +26°C° 0 mm 5 m/s 748 mmHg 74%
    15:00 +26°C° 0 mm 5 m/s 748 mmHg 75%
    16:00 +26°C° 0 mm 5 m/s 748 mmHg 77%
    17:00 +25°C° 0 mm 5 m/s 748 mmHg 81%
    18:00 +23°C° 0 mm 4 m/s 749 mmHg 85%
    19:00 +22°C° 0 mm 4 m/s 750 mmHg 89%
    20:00 +21°C° 0 mm 4 m/s 750 mmHg 89%
    21:00 +21°C° 0 mm 4 m/s 750 mmHg 90%
    22:00 +21°C° 0 mm 3 m/s 750 mmHg 90%
    23:00 +21°C° 0 mm 3 m/s 750 mmHg 91%

    13 Decembrie, Vineri

    Timp Temperatura Precipitaţii Vânt Presiune Umiditate
    00:00 +20°C° 0 mm 3 m/s 750 mmHg 91%
    01:00 +20°C° 0 mm 3 m/s 750 mmHg 91%
    02:00 +20°C° 0 mm 3 m/s 749 mmHg 91%
    03:00 +20°C° 0 mm 3 m/s 749 mmHg 91%
    04:00 +20°C° 0 mm 3 m/s 749 mmHg 91%
    05:00 +20°C° 0 mm 3 m/s 749 mmHg 89%
    06:00 +20°C° 0 mm 3 m/s 750 mmHg 88%
    07:00 +21°C° 0 mm 3 m/s 750 mmHg 86%
    08:00 +22°C° 0 mm 3 m/s 750 mmHg 81%
    09:00 +25°C° 0 mm 3 m/s 751 mmHg 75%
    10:00 +27°C° 0 mm 4 m/s 751 mmHg 70%
    11:00 +27°C° 0 mm 4 m/s 750 mmHg 72%
    12:00 +27°C° 0 mm 4 m/s 749 mmHg 74%
    13:00 +27°C° 0 mm 4 m/s 749 mmHg 75%
    14:00 +27°C° 0 mm 4 m/s 749 mmHg 77%
    15:00 +26°C° 0 mm 4 m/s 748 mmHg 79%
    16:00 +26°C° 0 mm 3 m/s 748 mmHg 81%
    17:00 +26°C° 0.1 mm 3 m/s 749 mmHg 84%
    18:00 +25°C° 0.1 mm 3 m/s 749 mmHg 86%
    19:00 +24°C° 0.1 mm 3 m/s 750 mmHg 89%
    20:00 +24°C° 0.1 mm 3 m/s 750 mmHg 90%
    21:00 +24°C° 0.1 mm 3 m/s 750 mmHg 90%
    22:00 +24°C° 0.1 mm 3 m/s 751 mmHg 91%
    23:00 +24°C° 0 mm 3 m/s 750 mmHg 91%

    14 Decembrie, Sâmbătă

    Timp Temperatura Precipitaţii Vânt Presiune Umiditate
    00:00 +24°C° 0 mm 3 m/s 750 mmHg 92%
    01:00 +22°C° 0 mm 3 m/s 750 mmHg 92%
    02:00 +24°C° 0.1 mm 3 m/s 749 mmHg 92%
    03:00 +24°C° 0.1 mm 3 m/s 749 mmHg 92%
    04:00 +24°C° 0.1 mm 3 m/s 749 mmHg 92%
    05:00 +24°C° 0.3 mm 3 m/s 749 mmHg 92%
    06:00 +24°C° 0.3 mm 3 m/s 749 mmHg 93%
    07:00 +25°C° 0.3 mm 4 m/s 750 mmHg 93%
    08:00 +25°C° 0.4 mm 4 m/s 750 mmHg 91%
    09:00 +26°C° 0.4 mm 4 m/s 750 mmHg 89%
    10:00 +27°C° 0.4 mm 5 m/s 750 mmHg 87%
    11:00 +27°C° 0.4 mm 5 m/s 749 mmHg 85%
    12:00 +27°C° 0.4 mm 5 m/s 749 mmHg 84%
    13:00 +27°C° 0.4 mm 6 m/s 749 mmHg 83%
    14:00 +27°C° 0.3 mm 5 m/s 748 mmHg 83%
    15:00 +27°C° 0.3 mm 5 m/s 748 mmHg 84%
    16:00 +27°C° 0.3 mm 5 m/s 748 mmHg 84%
    17:00 +26°C° 0.1 mm 4 m/s 749 mmHg 87%
    18:00 +25°C° 0.1 mm 4 m/s 749 mmHg 89%
    19:00 +23°C° 0.1 mm 4 m/s 750 mmHg 92%
    20:00 +24°C° 0.2 mm 3 m/s 750 mmHg 92%
    21:00 +24°C° 0.2 mm 3 m/s 750 mmHg 92%
    22:00 +24°C° 0.2 mm 3 m/s 750 mmHg 92%
    23:00 +24°C° 0.1 mm 3 m/s 750 mmHg 91%

    15 Decembrie, Duminică

    Timp Temperatura Precipitaţii Vânt Presiune Umiditate
    00:00 +24°C° 0.1 mm 3 m/s 750 mmHg 91%
    01:00 +24°C° 0.1 mm 3 m/s 749 mmHg 91%
    02:00 +24°C° 0.1 mm 3 m/s 749 mmHg 92%
    03:00 +22°C° 0.1 mm 3 m/s 749 mmHg 92%
    04:00 +22°C° 0.1 mm 3 m/s 748 mmHg 92%
    05:00 +24°C° 0.1 mm 3 m/s 749 mmHg 92%
    06:00 +24°C° 0.1 mm 3 m/s 749 mmHg 91%
    07:00 +24°C° 0.1 mm 3 m/s 749 mmHg 91%
    08:00 +25°C° 0.1 mm 3 m/s 749 mmHg 87%
    09:00 +26°C° 0.1 mm 3 m/s 749 mmHg 82%
    10:00 +28°C° 0.1 mm 4 m/s 750 mmHg 78%
    11:00 +28°C° 0.1 mm 4 m/s 749 mmHg 77%
    12:00 +28°C° 0.1 mm 4 m/s 748 mmHg 75%
    13:00 +28°C° 0.1 mm 5 m/s 748 mmHg 74%
    14:00 +28°C° 0 mm 4 m/s 748 mmHg 75%
    15:00 +28°C° 0 mm 4 m/s 747 mmHg 76%
    16:00 +28°C° 0 mm 4 m/s 747 mmHg 78%
    17:00 +27°C° 0 mm 3 m/s 748 mmHg 82%
    18:00 +26°C° 0 mm 3 m/s 748 mmHg 86%
    19:00 +25°C° 0 mm 2 m/s 748 mmHg 89%
    20:00 +25°C° 0 mm 2 m/s 749 mmHg 89%
    21:00 +24°C° 0 mm 2 m/s 749 mmHg 89%
    22:00 +24°C° 0 mm 2 m/s 749 mmHg 89%
    23:00 +24°C° 0 mm 2 m/s 749 mmHg 90%
    Arată mai mult